Regional Weather Roundup
Issued by NWS Little Rock, AR

Home | Current Version | Previous Version | Graphics & Text | Print | Product List | Glossary On
Versions: 1 2 3 4 5 6 7 8 9 10 11 12 13 14 15 16 17 18 19 20 21 22 23 24 25 26 27 28 29 30 31
000
ASUS44 KLZK 282105
RWRLZK

WEATHER ROUNDUP FOR ARKANSAS
NATIONAL WEATHER SERVICE LITTLE ROCK AR
400 PM CDT TUE MAR 28 2017

NOTE: "FAIR" INDICATES FEW OR NO CLOUDS BELOW 12,000 FEET WITH NO
SIGNIFICANT WEATHER AND/OR OBSTRUCTIONS TO VISIBILITY.

ARZ001-003-010-029-282200-
NORTHWEST ARKANSAS

CITY           SKY/WX    TMP DP  RH WIND       PRES   REMARKS
FAYETTEVILLE   SUNNY     75  57  53 E9        29.86F
FORT SMITH     MOSUNNY   78  56  46 E12       29.85F
HARRISON       SUNNY     69  54  58 E12       29.93F
BENTONVILLE    SUNNY     73  54  49 SE9       29.88F
ROGERS         SUNNY     72  52  49 E10G20    29.88F
SILOAM SPGS    SUNNY     73  54  49 SE9       29.86F
HIGHFILL       SUNNY     74  56  53 E10G21    29.87F
SPRINGDALE     SUNNY     73  54  49 E6G16     29.89F
$$

ARZ004-005-016-282200-
NORTH CENTRAL ARKANSAS

CITY           SKY/WX    TMP DP  RH WIND       PRES   REMARKS
BATESVILLE     CLOUDY    68  55  64 E10       29.97F
FLIPPIN        SUNNY     70  52  52 E9        29.92F
MTN HOME       MOSUNNY   68  52  56 E10       29.94F
$$

ARZ040-041-282200-
WEST CENTRAL ARKANSAS

CITY           SKY/WX    TMP DP  RH WIND       PRES   REMARKS
MENA           CLOUDY    77  63  61 SE7       29.88F
MOUNT IDA      PTSUNNY   75  59  57 SE8       29.87F
$$

ARZ009-017-025-026-028-282200-
NORTHEAST ARKANSAS

CITY           SKY/WX    TMP DP  RH WIND       PRES   REMARKS
CORNING        FAIR      66  55  68 NE13      30.01F
JONESBORO      SUNNY     67  56  67 E12       29.98F
NEWPORT        PTSUNNY   69  59  70 NE12      29.97F
WALNUT RIDGE   SUNNY     66  54  63 CALM      29.99F
BLYTHEVILLE    MOSUNNY   69  58  67 N10       30.00F
NW BLYTHEVILLE MOSUNNY   66  55  68 N8        30.00F
$$

ARZ022-023-033-042-044-282200-
CENTRAL ARKANSAS

CITY           SKY/WX    TMP DP  RH WIND       PRES   REMARKS
LITTLE ROCK    MOSUNNY   74  61  63 E10       29.92F
N LITTLE ROCK    N/A     75  62  62 E9        29.92F
JACKSONVILLE   SUNNY     74  60  62 E12G18    29.91F
CONWAY           N/A     75  61  60 SE10      29.89F
SEARCY         PTSUNNY   70  60  70 E10       29.96F
HOT SPRINGS    CLOUDY    76  61  59 E7        29.89F
RUSSELLVILLE   SUNNY     73  58  59 SE9       29.89F
CLINTON        PTSUNNY   72  57  60 SE8G14    29.93F
$$

ARZ036-282200-
EAST ARKANSAS

CITY           SKY/WX    TMP DP  RH WIND       PRES   REMARKS
WEST MEMPHIS   SUNNY     75  60  59 N13       29.94F
$$

ARZ050-053-066-070-073-282200-
SOUTHWEST ARKANSAS

CITY           SKY/WX    TMP DP  RH WIND       PRES   REMARKS
ARKADELPHIA    CLOUDY    77  65  66 S10       29.89F
CAMDEN         CLOUDY    75  63  64 S7        29.90F
TEXARKANA        N/A     75  65  70 E9        29.85F
EL DORADO      CLOUDY    79  65  62 VRB6      29.88F
DE QUEEN       PTSUNNY   74  66  76 E14       29.84F
$$

ARZ056-057-069-282200-
SOUTHEAST ARKANSAS

CITY           SKY/WX    TMP DP  RH WIND       PRES   REMARKS
PINE BLUFF     PTSUNNY   80  61  52 E5        29.91F
STUTTGART      SUNNY     75  55  50 NE9       29.93F
MONTICELLO     MOSUNNY   81  63  54 S9        29.89F

$$






USA.gov is the U.S. government's official web portal to all federal, state and local government web resources and services.